This is the latest recevied weather packets stored in our database for station/object W7TRD. If no packets are shown the sender has not sent any weather packets the latest 10 day(s).
| Time | Temp. | Humidity | Pressure | Rain* | Wind** | Luminosity | Snow |
|---|---|---|---|---|---|---|---|
| 1777767349 | 25° C | 53% | 1011.8 hPa | 0 mm | - | 356 W/m² | - |
| 1777767047 | 24.44° C | 55% | 1012 hPa | 0 mm | - | 320 W/m² | - |
| 1777766744 | 24.44° C | 56% | 1012.2 hPa | 0 mm | - | 261 W/m² | - |
| 1777766441 | 24.44° C | 55% | 1012 hPa | 0 mm | - | 261 W/m² | - |
| 1777766137 | 25° C | 54% | 1012.2 hPa | 0 mm | - | 263 W/m² | - |
| 1777765836 | 25° C | 55% | 1012.2 hPa | 0 mm | - | 327 W/m² | - |
| 1777765531 | 25° C | 54% | 1012.2 hPa | 0 mm | - | 403 W/m² | - |
| 1777765229 | 23.89° C | 56% | 1012.3 hPa | 0 mm | - | 427 W/m² | - |
| 1777764929 | 23.33° C | 57% | 1012.4 hPa | 0 mm | - | 391 W/m² | - |
| 1777764627 | 23.33° C | 58% | 1012.3 hPa | 0 mm | - | 283 W/m² | - |
| 1777764323 | 24.44° C | 55% | 1012.5 hPa | 0 mm | - | 247 W/m² | - |
| 1777764020 | 24.44° C | 55% | 1012.7 hPa | 0 mm | - | 388 W/m² | - |
| 1777763717 | 23.89° C | 55% | 1012.6 hPa | 0 mm | - | 453 W/m² | - |
| 1777763415 | 23.89° C | 56% | 1012.8 hPa | 0 mm | - | 450 W/m² | - |
| 1777763113 | 23.33° C | 57% | 1012.7 hPa | 0 mm | - | 456 W/m² | - |
| 1777762811 | 23.89° C | 56% | 1013.1 hPa | 0 mm | - | 468 W/m² | - |
| 1777762511 | 23.33° C | 58% | 1012.8 hPa | 0 mm | - | 514 W/m² | - |
| 1777762209 | 22.78° C | 58% | 1013.1 hPa | 0 mm | - | 526 W/m² | - |
| 1777761905 | 22.78° C | 59% | 1013.2 hPa | 0 mm | - | 490 W/m² | - |
| 1777761602 | 22.22° C | 59% | 1013.3 hPa | 0 mm | - | 481 W/m² | - |
| 1777761299 | 22.22° C | 59% | 1013.4 hPa | 0 mm | - | 508 W/m² | - |
| 1777760998 | 22.78° C | 59% | 1013.5 hPa | 0 mm | - | 532 W/m² | - |
| 1777760695 | 22.22° C | 59% | 1013.6 hPa | 0 mm | - | 575 W/m² | - |
| 1777760390 | 22.22° C | 58% | 1013.6 hPa | 0 mm | - | 604 W/m² | - |
| 1777760087 | 22.22° C | 60% | 1013.6 hPa | 0 mm | - | 593 W/m² | - |
* Rain latest hour (hover to see other rain measurements)
** Current wind speed in m/s (hover to see current wind gust speed)